sat.trackr.live / text

‹ back to catalog

2024-173E

NORAD 61231 · 2024-173E

PAYLOAD ACTIVE UNKNOWN

§ Identity

Operator
Country
PRC
Launch date
2024-09-24
Launch site
YSLA
Launch vehicle
Mass (kg)
RCS (m²)

External: N2YO · Heavens-Above · Gunter

§ Orbital elements

Epoch: 2026-05-25T04:10:31.282752Z

Period
94.79 min
Inclination
97.4121°
Eccentricity
0.0001608
Mean motion
15.19182978 rev/d
Perigee alt
507.2 km
Apogee alt
509.4 km
Semi-major
6,886.4 km
B*
5.9502e-5
RAAN
217.7766°
Arg perigee
87.9780°
Mean anomaly
272.1638°
Rev number
9,226

§ Raw data

2024-173E1 61231U 24173E   26145.17397318  .00001184  00000+0  59502-4 0  99952 61231  97.4121 217.7766 0001608  87.9780 272.1638 15.19182978 92268

JSON: /api/v1/satellites/61231 · /tle

For live sub-satellite position, see the globe view (requires WebGL).

§ Visibility from observer

Set your observer location to see the next 7 days of passes ≥ 10°. The values pass through the URL so the page stays shareable.

No JS? Fill the form by hand. The geolocation button needs JavaScript.

§ Radio — SatNOGS DB

ModeDescriptionDownlinkUplink
FSK AX.100 Mode 5 Mode U - FSK19k2 401.750 MHz

1 transmitter · refreshed weekly from db.satnogs.org